CAPE
37 210 958 535 456 244 62 8 0 0 0 0 0 27 57 46 26 16 5 0 0 0 2 35 44 37 45 62 45 13 0 0 0 0 0 0 0 0 0 0 0 2 0
79 346 974 585 518 285 58 22 0 0 0 0 0 22 50 50 44 28 19 0 0 0 0 2 8 9 31 17 5 0 0 0 0 0 0 0 0 0 0 0 0 2 0
161 624 903 600 560 404 89 38 0 0 0 0 26 47 25 17 2 10 10 0 0 0 0 0 0 1 2 0 0 0 0 0 0 0 0 0 0 0 0 6 0 13 0
337 691 771 786 752 457 135 57 0 0 0 0 39 26 17 10 1 0 0 0 0 0 0 0 0 0 0 0 0 0 0 0 0 0 0 0 0 0 0 0 8 9 9
402 944 768 987 878 588 246 85 13 0 0 0 10 1 0 0 0 0 0 0 0 0 0 0 0 0 0 0 0 0 0 0 0 0 0 0 0 0 0 0 0 55 31
533 1084 896 1020 1084 667 369 128 48 0 0 0 0 0 7 3 0 0 0 0 0 0 0 0 0 0 0 0 0 7 7 4 0 0 0 0 0 0 0 0 0 0 2
574 1046 1159 1227 1098 700 430 178 75 16 0 0 0 5 13 21 30 27 17 0 0 0 0 0 0 3 2 0 0 0 0 0 0 0 0 0 0 0 13 3 0 2 8
477 982 1162 1262 1089 760 502 226 107 44 4 0 0 0 16 17 24 30 20 0 0 0 0 0 1 0 0 0 11 15 5 0 1 0 0 0 0 0 57 98 76 0 0
518 783 1060 1257 1147 784 534 245 143 83 31 0 0 0 4 1 8 46 19 0 0 0 0 0 17 18 15 38 52 33 15 20 22 9 0 0 0 19 149 175 256 226 118
438 689 782 1141 1213 1044 710 322 175 105 78 0 0 0 0 0 0 6 48 17 19 22 15 34 47 65 53 26 12 0 0 0 0 0 0 0 0 2 92 80 44 144 223
395 560 855 956 1122 1019 745 435 220 128 73 14 0 0 0 0 0 0 0 0 0 0 18 14 24 0 0 0 0 0 0 0 0 0 0 0 0 0 1 0 0 0 2
409 445 777 937 1088 991 715 469 295 190 117 85 17 0 0 0 0 0 0 0 0 0 0 0 0 0 0 0 0 0 0 0 0 0 0 0 0 0 0 0 0 0 2
415 583 634 910 1062 901 758 502 361 270 179 91 39 2 0 0 0 0 0 0 0 0 0 0 0 0 0 0 0 0 0 0 0 0 0 0 0 0 0 0 0 0 0
190 475 763 847 919 807 796 541 370 242 238 135 72 1 0 0 0 0 0 0 0 0 0 0 0 0 0 0 0 0 0 0 0 0 0 0 0 0 0 0 0 0 0
68 248 596 844 888 781 721 583 391 224 193 171 72 9 0 0 0 0 0 0 0 0 0 0 0 0 0 0 0 0 0 0 0 0 0 0 0 0 0 0 0 0 0
0 0 162 603 853 821 757 574 336 233 247 138 73 28 3 2 0 0 0 0 0 0 0 0 0 0 0 0 0 0 0 0 0 0 0 0 0 0 0 0 0 0 0
0 0 0 10 487 757 732 553 235 199 242 102 75 28 9 0 0 0 0 0 0 0 0 0 0 0 0 0 0 0 0 0 0 0 0 0 0 0 0 0 0 0 0
0 0 0 0 0 444 653 477 185 189 171 53 15 0 0 0 0 0 0 0 0 0 0 0 0 0 0 0 0 0 0 0 0 0 0 0 0 0 0 0 0 0 0
0 0 0 0 0 194 456 326 111 34 0 0 0 0 0 0 0 0 0 0 0 0 0 0 0 0 0 0 0 0 0 0 0 0 0 0 0 0 0 0 0 0 0
0 0 0 0 32 163 121 0 0 0 0 0 0 0 0 0 0 0 0 0 0 0 0 0 0 0 0 0 0 0 0 0 0 0 0 0 0 0 0 0 0 0 0
0 0 0 0 73 1 0 0 0 0 0 0 0 0 0 0 0 0 0 0 0 0 0 0 0 0 0 0 0 0 0 0 0 0 0 0 0 0 0 0 0 0 0
0 0 0 6 0 0 0 0 0 0 0 0 0 0 0 0 0 0 0 0 0 0 0 0 0 0 0 0 0 0 0 0 0 0 0 0 0 0 0 0 0 0 0
0 0 0 0 0 0 0 0 0 0 0 0 0 0 0 0 0 0 0 0 0 0 0 0 0 0 0 0 0 0 0 0 0 0 0 0 0 0 0 0 0 0 0
0 0 0 0 0 0 0 0 0 0 0 0 0 0 0 0 0 0 0 0 0 0 0 0 0 0 0 0 0 0 0 0 0 0 0 0 0 0 0 0 0 0 0
0 0 0 0 0 0 0 0 0 0 0 0 0 0 0 0 0 0 0 0 0 0 0 0 0 0 0 0 0 0 0 0 0 0 0 0 0 0 0 0 0 0 0
0 0 0 0 0 0 0 0 0 0 0 0 0 0 0 0 0 0 0 0 0 0 0 0 0 0 0 0 0 0 0 0 0 0 0 0 0 0 0 0 0 0 0
CIN
-489 -305 -136 -162 -151 -169 -219 -183 -0 -0 -0 -0 -0 -0 -0 -0 -3 -5 -2 -0 -0 -0 -3 -7 -1 -1 -1 -0 -0 -1 -0 -0 -0 -0 -0 -0 -0 -0 -0 -0 -0 -0 -0
-446 -284 -133 -163 -142 -166 -233 -255 -0 -0 -0 -0 -0 -0 -0 -2 -1 -3 -2 -0 -0 -0 -0 -4 -13 -10 -0 -4 -6 -0 -0 -0 -0 -0 -0 -0 -0 -0 -0 -0 -0 -0 -0
-384 -246 -143 -150 -141 -132 -193 -237 -0 -0 -0 -0 -0 -0 -2 -1 -1 -2 -4 -0 -0 -0 -0 -0 -0 -24 -20 -0 -0 -0 -0 -0 -0 -0 -0 -0 -0 -0 -0 -0 -0 -0 -0
-335 -231 -175 -144 -119 -129 -175 -212 -0 -0 -0 -0 -83 -2 -2 -2 -0 -0 -0 -0 -0 -0 -0 -0 -0 -0 -0 -0 -0 -0 -0 -0 -0 -0 -0 -0 -0 -0 -0 -0 -2 -2 -4
-328 -184 -181 -122 -120 -128 -161 -222 -332 -0 -0 -0 -1 -1 -0 -2 -0 -0 -0 -0 -0 -0 -0 -0 -0 -0 -0 -0 -0 -0 -0 -0 -0 -0 -0 -0 -0 -0 -0 -0 -0 -408 -241
-320 -168 -167 -122 -104 -135 -157 -218 -284 -0 -0 -0 -0 -0 -0 -3 -0 -0 -0 -0 -0 -0 -0 -0 -0 -0 -0 -0 -0 -1 -0 -1 -0 -0 -0 -0 -0 -0 -0 -0 -0 -0 -1
-292 -158 -111 -98 -97 -126 -158 -196 -262 -334 -0 -0 -0 -7 -12 -13 -4 -6 -15 -0 -0 -0 -0 -0 -0 -0 -0 -0 -0 -0 -0 -0 -0 -0 -0 -0 -0 -0 -533 -129 -0 -0 -2
-310 -180 -113 -82 -91 -115 -136 -193 -257 -308 -316 -0 -0 -0 -11 -18 -13 -10 -14 -0 -0 -0 -0 -0 -0 -0 -0 -0 -169 -126 -8 -0 -7 -0 -0 -0 -0 -0 -329 -261 -288 -154 -0
-307 -219 -138 -71 -70 -103 -130 -191 -219 -268 -311 -0 -0 -0 -7 -10 -13 -131 -150 -0 -0 -0 -0 -0 -186 -258 -276 -231 -215 -263 -16 -25 -91 -16 -0 -0 -0 -407 -175 -152 -108 -122 -192
-320 -233 -190 -93 -57 -58 -90 -158 -192 -220 -229 -0 -0 -0 -0 -0 -0 -11 -127 -205 -201 -201 -226 -197 -198 -183 -231 -297 -37 -0 -0 -0 -0 -0 -0 -0 -0 -129 -229 -230 -267 -162 -110
-314 -256 -165 -129 -75 -71 -81 -123 -173 -201 -222 -319 -0 -0 -0 -0 -0 -0 -0 -0 -0 -0 -252 -220 -228 -0 -0 -0 -0 -0 -0 -0 -0 -0 -0 -0 -0 -0 -6 -0 -0 -0 -62
-249 -258 -175 -126 -73 -70 -95 -127 -151 -174 -187 -194 -283 -0 -0 -0 -0 -0 -0 -0 -0 -0 -0 -0 -0 -0 -0 -0 -0 -0 -0 -0 -0 -0 -0 -0 -0 -0 -0 -0 -0 -0 -0
-232 -230 -215 -140 -82 -83 -90 -129 -143 -152 -165 -203 -236 -304 -0 -0 -0 -0 -0 -0 -0 -0 -0 -0 -0 -0 -0 -0 -0 -0 -0 -0 -0 -0 -0 -0 -0 -0 -0 -0 -0 -0 -0
-227 -221 -186 -163 -122 -117 -82 -122 -159 -178 -142 -173 -198 -50 -0 -0 -0 -0 -0 -0 -0 -0 -0 -0 -0 -0 -0 -0 -0 -0 -0 -0 -0 -0 -0 -0 -0 -0 -0 -0 -0 -0 -0
-240 -212 -202 -176 -156 -148 -124 -121 -149 -183 -165 -150 -189 -279 -0 -0 -0 -0 -0 -0 -0 -0 -0 -0 -0 -0 -0 -0 -0 -0 -0 -0 -0 -0 -0 -0 -0 -0 -0 -0 -0 -0 -0
-0 -0 -237 -217 -186 -161 -147 -138 -157 -171 -137 -168 -194 -235 -52 -49 -0 -0 -0 -0 -0 -0 -0 -0 -0 -0 -0 -0 -0 -0 -0 -0 -0 -0 -0 -0 -0 -0 -0 -0 -0 -0 -0
-0 -0 -0 -102 -264 -200 -166 -144 -180 -167 -128 -177 -177 -194 -183 -0 -0 -0 -0 -0 -0 -0 -0 -0 -0 -0 -0 -0 -0 -0 -0 -0 -0 -0 -0 -0 -0 -0 -0 -0 -0 -0 -0
-0 -0 -0 -0 -0 -275 -191 -153 -170 -157 -154 -219 -204 -0 -0 -0 -0 -0 -0 -0 -0 -0 -0 -0 -0 -0 -0 -0 -0 -0 -0 -0 -0 -0 -0 -0 -0 -0 -0 -0 -0 -0 -0
-0 -0 -0 -0 -0 -328 -222 -166 -204 -116 -0 -0 -0 -0 -0 -0 -0 -0 -0 -0 -0 -0 -0 -0 -0 -0 -0 -0 -0 -0 -0 -0 -0 -0 -0 -0 -0 -0 -0 -0 -0 -0 -0
-0 -0 -0 -0 -458 -324 -291 -0 -0 -0 -0 -0 -0 -0 -0 -0 -0 -0 -0 -0 -0 -0 -0 -0 -0 -0 -0 -0 -0 -0 -0 -0 -0 -0 -0 -0 -0 -0 -0 -0 -0 -0 -0
-0 -0 -0 -0 -435 -111 -0 -0 -0 -0 -0 -0 -0 -0 -0 -0 -0 -0 -0 -0 -0 -0 -0 -0 -0 -0 -0 -0 -0 -0 -0 -0 -0 -0 -0 -0 -0 -0 -0 -0 -0 -0 -0
-0 -0 -0 -491 -0 -0 -0 -0 -0 -0 -0 -0 -0 -0 -0 -0 -0 -0 -0 -0 -0 -0 -0 -0 -0 -0 -0 -0 -0 -0 -0 -0 -0 -0 -0 -0 -0 -0 -0 -0 -0 -0 -0
-0 -0 -0 -0 -0 -0 -0 -0 -0 -0 -0 -0 -0 -0 -0 -0 -0 -0 -0 -0 -0 -0 -0 -0 -0 -0 -0 -0 -0 -0 -0 -0 -0 -0 -0 -0 -0 -0 -0 -0 -0 -0 -0
-0 -0 -0 -0 -0 -0 -0 -0 -0 -0 -0 -0 -0 -0 -0 -0 -0 -0 -0 -0 -0 -0 -0 -0 -0 -0 -0 -0 -0 -0 -0 -0 -0 -0 -0 -0 -0 -0 -0 -0 -0 -0 -0
-0 -0 -0 -0 -0 -0 -0 -0 -0 -0 -0 -0 -0 -0 -0 -0 -0 -0 -0 -0 -0 -0 -0 -0 -0 -0 -0 -0 -0 -0 -0 -0 -0 -0 -0 -0 -0 -0 -0 -0 -0 -0 -0
-0 -0 -0 -0 -0 -0 -0 -0 -0 -0 -0 -0 -0 -0 -0 -0 -0 -0 -0 -0 -0 -0 -0 -0 -0 -0 -0 -0 -0 -0 -0 -0 -0 -0 -0 -0 -0 -0 -0 -0 -0 -0 -0
Wind_Speed
9 12 13 13 14 15 15 15 15 16 16 15 14 13 13 14 14 14 14 15 15 15 15 16 16 14 12 11 11 11 12 14 17 19 20 20 19 18 17 15 15 16 16
10 11 12 12 13 14 14 15 15 16 16 16 14 14 14 15 15 15 15 16 16 15 14 15 15 15 14 13 13 13 13 15 17 18 20 20 19 19 17 16 15 15 16
10 9 10 10 12 12 13 14 15 15 16 16 15 15 15 15 15 14 15 15 15 15 15 14 14 15 14 14 14 15 15 17 17 18 19 20 19 19 19 21 13 14 16
9 8 9 9 10 11 12 13 14 15 15 15 14 14 14 15 15 14 15 15 15 15 15 14 14 15 15 15 16 17 17 18 18 19 19 19 20 20 20 20 15 11 13
7 6 6 8 9 10 11 12 13 14 15 15 14 14 14 14 14 14 14 15 16 16 16 16 15 16 16 16 17 17 17 18 17 19 20 20 20 20 20 19 20 14 15
3 4 6 7 8 9 10 11 12 13 14 14 14 13 13 13 13 13 13 14 15 15 16 16 17 17 17 17 17 19 18 18 18 19 20 20 20 20 20 19 19 19 17
3 3 4 5 7 9 9 10 11 12 13 13 13 13 14 15 15 11 13 13 14 15 16 17 18 18 18 18 18 19 19 20 20 20 20 21 21 22 21 20 18 18 20
3 3 3 4 5 7 8 9 10 11 12 11 11 12 14 15 17 13 12 14 14 15 16 17 18 18 18 18 19 19 19 19 20 21 21 21 22 23 22 21 19 18 18
2 2 2 3 3 5 6 8 9 10 11 11 10 11 13 15 16 14 13 13 14 16 17 18 19 19 19 19 20 20 20 20 20 20 21 21 22 22 22 23 22 20 19
5 5 3 2 3 3 5 6 7 9 10 11 11 11 13 14 14 14 13 14 15 16 17 18 19 19 20 22 22 22 22 21 21 21 21 21 23 24 24 24 25 25 25
10 9 7 4 4 3 4 5 6 8 9 10 12 12 13 14 14 15 14 15 16 17 18 19 21 20 20 21 22 22 22 22 21 21 22 23 24 24 24 25 25 26 27
9 11 10 9 7 5 5 4 5 7 9 10 11 13 14 13 13 14 15 16 16 17 18 19 20 20 20 21 21 22 22 23 22 22 23 25 24 24 24 24 24 25 26
12 14 12 11 9 6 6 5 6 6 9 11 11 12 13 13 13 14 15 16 16 17 17 19 19 20 21 22 22 22 23 23 23 23 24 25 25 24 24 23 24 26 26
14 13 14 12 10 9 9 7 6 6 8 11 11 11 12 13 13 14 15 15 16 17 18 19 20 21 22 22 22 22 23 23 23 22 23 24 23 22 22 23 25 26 25
23 17 14 14 13 11 10 10 8 5 6 10 11 10 11 12 13 13 14 15 16 17 19 19 21 22 23 23 23 24 24 23 23 21 21 23 22 22 23 24 26 26 25
22 21 17 14 13 13 11 10 9 7 6 9 11 10 10 12 11 11 13 15 16 18 19 20 21 23 24 25 25 24 23 22 21 20 20 21 22 22 23 25 26 27 27
28 26 21 18 15 13 13 11 9 7 7 8 10 9 10 9 9 11 13 15 16 18 19 20 22 24 26 26 25 23 23 21 20 20 20 20 21 22 24 26 28 29 30
33 31 28 21 16 14 13 12 10 9 7 9 9 8 8 8 9 11 13 15 17 18 20 22 24 26 27 28 26 24 23 18 19 19 19 21 22 22 24 27 29 31 32
37 38 31 20 13 12 13 11 11 11 9 9 9 7 6 7 9 11 13 15 16 18 21 23 25 26 28 29 27 25 25 18 17 18 20 21 23 24 26 28 32 34 35
36 33 28 20 14 11 11 10 11 11 10 10 8 7 6 7 9 10 13 14 16 19 22 23 25 25 27 29 27 27 22 19 17 18 21 25 24 25 28 30 34 36 38
30 30 25 18 14 11 10 10 10 11 9 8 7 6 6 7 8 10 12 14 17 20 22 24 24 26 29 30 28 28 23 21 21 21 23 29 25 28 30 32 37 39 39
25 23 21 17 12 11 10 11 10 8 9 7 7 6 6 7 8 10 11 14 17 20 22 24 26 26 27 29 29 26 29 25 22 27 28 26 31 29 36 37 39 40 39
23 20 16 15 12 11 10 7 7 6 6 7 6 6 8 8 8 9 12 14 17 20 23 24 26 27 29 28 28 28 30 29 34 26 30 29 31 36 37 38 39 39 40
22 19 16 14 13 11 9 9 11 10 9 9 6 5 6 7 7 9 12 15 17 20 22 25 26 27 27 30 27 28 26 28 33 37 30 34 34 40 39 39 40 41 40
21 18 16 13 12 11 10 10 9 8 9 5 4 3 4 6 8 10 12 15 18 20 23 25 27 28 28 29 29 30 29 30 29 33 44 40 42 41 41 39 43 38 39
21 18 16 14 12 12 11 11 10 9 8 6 4 3 4 5 7 10 13 16 18 21 24 26 27 29 29 29 29 29 30 32 35 36 42 47 48 44 46 42 37 41 41
Wind_Direction
51 87 92 84 81 76 67 58 52 48 46 46 52 58 61 50 52 46 33 3 343 341 345 358 12 12 29 27 19 4 356 343 335 335 336 335 338 338 341 346 349 345 338
83 90 91 82 77 73 65 58 52 47 40 42 52 60 54 44 36 36 22 8 349 340 344 349 353 5 12 12 8 1 356 344 339 337 336 340 340 341 343 344 344 344 336
94 85 84 78 75 66 59 55 47 42 40 46 61 61 47 28 14 29 10 7 351 350 344 349 350 349 355 355 353 351 348 344 342 340 339 338 338 338 340 335 346 341 336
93 78 78 76 69 65 58 50 43 39 39 40 55 56 42 31 31 38 25 13 359 350 349 349 349 347 346 344 340 339 339 339 340 342 341 342 337 336 337 337 344 345 341
86 58 52 71 73 65 57 48 39 35 37 40 39 38 35 56 47 44 28 14 7 5 8 8 2 356 353 349 344 345 345 345 349 347 344 344 343 339 335 334 334 339 332
55 53 57 64 73 65 58 47 37 35 37 40 35 34 40 50 54 46 34 20 12 7 4 4 1 356 355 352 350 344 346 346 348 346 346 345 345 343 339 336 332 330 329
56 24 11 59 70 66 59 47 35 28 29 36 35 36 26 15 357 44 28 31 23 15 10 3 357 354 353 352 350 348 344 343 343 343 343 343 342 339 339 339 337 334 326
77 34 15 50 68 58 54 46 36 24 20 26 31 22 8 352 335 33 44 34 24 11 2 359 357 2 1 1 358 355 354 350 346 343 343 343 338 336 336 338 337 336 332
348 348 40 35 46 52 51 44 34 23 17 15 19 9 355 350 346 17 27 22 12 10 1 4 5 5 4 359 355 354 350 350 348 347 343 342 340 338 335 332 330 330 328
316 308 321 340 358 30 39 39 30 21 15 11 8 358 352 346 343 348 359 0 360 2 4 6 7 3 358 353 351 350 350 350 350 349 348 346 340 337 335 335 333 329 323
300 291 292 303 312 340 11 24 19 8 8 2 356 350 345 337 334 339 346 349 353 360 1 360 357 0 2 357 352 349 350 349 350 350 349 344 342 339 336 334 334 329 325
295 286 285 288 293 306 328 356 14 358 349 349 346 341 338 342 339 337 341 345 353 359 1 4 4 4 1 356 354 352 348 347 348 348 347 343 342 341 339 337 336 335 334
289 284 282 284 289 294 305 321 335 345 332 332 339 339 341 342 341 340 342 347 353 359 4 6 4 1 357 353 350 349 345 344 345 346 345 343 342 341 341 343 339 336 333
286 285 284 282 284 289 296 300 312 327 327 318 326 335 335 339 340 345 346 352 359 2 1 1 359 352 352 354 354 351 348 346 345 346 346 346 347 349 347 343 341 336 337
279 284 283 281 280 282 284 291 295 306 322 316 313 328 336 335 340 348 352 355 356 358 357 357 352 345 346 347 349 346 344 345 346 348 349 349 352 351 347 344 340 338 338
283 284 284 280 278 277 276 277 285 295 310 311 307 321 335 338 345 350 353 350 352 353 355 354 348 343 343 343 344 346 347 349 350 351 350 350 350 349 346 342 339 336 333
280 284 285 282 275 266 266 267 276 282 297 301 305 318 329 345 351 350 346 344 348 350 352 353 348 342 340 342 344 347 348 351 353 353 353 351 348 347 344 341 338 334 331
272 279 285 286 273 261 259 259 265 275 284 292 302 313 326 341 348 347 345 345 347 349 349 348 345 339 337 340 342 346 346 350 352 352 353 351 349 347 343 340 336 333 329
271 273 282 284 270 254 257 258 266 272 279 286 295 306 324 339 343 347 347 347 349 352 349 348 342 340 338 338 341 345 344 349 350 350 346 345 343 341 338 336 333 331 327
273 276 280 280 269 255 255 258 266 269 279 283 286 295 317 334 341 346 348 349 350 351 351 347 346 347 345 341 343 343 350 353 350 344 340 338 336 335 333 332 331 328 326
275 275 278 273 261 252 240 241 255 255 264 274 280 289 311 331 340 346 350 349 350 351 351 350 348 345 344 344 344 345 348 349 342 338 335 333 336 332 331 331 328 327 325
271 274 274 265 254 252 243 251 257 243 265 265 280 293 299 323 335 345 350 349 350 351 351 350 347 346 348 348 344 345 338 342 345 336 332 334 331 333 328 328 327 326 326
263 265 263 256 253 255 245 233 246 255 261 270 276 289 302 318 335 349 350 351 352 352 348 350 349 348 346 348 349 345 335 331 328 334 330 332 331 329 328 328 327 326 324
255 258 256 253 253 245 228 220 204 225 230 260 253 277 305 319 335 346 351 353 353 352 349 350 350 348 348 344 345 345 342 335 330 326 329 325 327 325 326 326 326 325 324
250 246 249 248 249 243 231 214 212 225 254 232 240 272 308 323 337 344 349 351 352 352 349 349 347 347 347 344 342 340 338 335 333 327 322 325 324 326 325 326 324 325 324
244 241 241 242 246 242 230 213 215 203 203 209 223 252 291 320 336 342 346 348 350 349 346 346 346 346 345 344 341 339 336 334 330 328 324 323 322 325 324 325 327 325 324